Weather History for FABL - January, 2013

Change the Weather History Date:

Sunday, January 27, 2013

  Actual Average Record
Temperature  
Mean Temperature 78 °F -  
Max Temperature 97 °F 83 °F 90 °F (2014)
Min Temperature 58 °F 56 °F 60 °F (2015)
Cooling Degree Days 12    
Growing Degree Days 28 (Base 50)    
Moisture  
Dew Point 48 °F    
Average Humidity 38    
Maximum Humidity 82    
Minimum Humidity 8    
Precipitation  
Precipitation 0.00 in 0.14 in - ()
Sea Level Pressure  
Sea Level Pressure 30.05 in    
Wind  
Wind Speed 6 mph ()    
Max Wind Speed 18 mph    
Max Gust Speed 30 mph    
Visibility 11.0 miles    
Events      
Averages and records for this station are not official NWS values.
T = Trace of Precipitation, MM = Missing Value Source: Averaged Metar Reports

Daily Weather History Graph

Daily Weather History Graph

Search for Another Location

Airport or City:

Trip Planner

Search our weather history database for the weather conditions in past years. The results will help you decide how hot, cold, wet, or windy it might be!

Date:

Astronomy

Jan. 27, 2013 Rise Set
Actual Time 5:40 AM SAST 7:14 PM SAST
Civil Twilight 5:14 AM SAST 7:39 PM SAST
Nautical Twilight 4:44 AM SAST 8:10 PM SAST
Astronomical Twilight 4:11 AM SAST 8:42 PM SAST
Moon 7:13 PM SAST (1/27) 5:48 AM SAST (1/27)
Length of Visible Light 14h 24m
Length of Day
13h 33m
Full, 100% of the Moon is Illuminated
Jan 27
Full
Feb 3
Last Quarter
Feb 10
New
Feb 17
First Quarter
Feb 25
Full

Hourly Weather History & Observations

Time (SAST) Temp. Heat Index Dew Point Humidity Pressure Visibility Wind Dir Wind Speed Gust Speed Precip Events Conditions
12:00 AM 62.6 °F - 41.0 °F 45% 30.06 in - WSW 2.3 mph - N/A   Unknown
1:00 AM 60.8 °F - 46.4 °F 59% 30.06 in - SSE 1.2 mph - N/A   Unknown
2:00 AM 64 °F - 45 °F 38%  in - ENE 4.6 mph - -  
2:00 AM 62.6 °F - 44.6 °F 52% 30.06 in - ENE 3.5 mph - N/A   Unknown
3:00 AM 59.0 °F - 48.2 °F 67% 30.06 in - ENE 2.3 mph - N/A   Unknown
4:00 AM 62.6 °F - 55.4 °F 77% 30.06 in - NE 5.8 mph - N/A   Unknown
5:00 AM 59 °F - 53 °F 75%  in 19 mi Calm Calm - -  
5:00 AM 60.8 °F - 51.8 °F 72% 30.06 in - Calm Calm - N/A   Clear
6:00 AM 59.0 °F - 53.6 °F 82% 30.09 in - Variable 2.3 mph - N/A   Clear
6:06 AM 64.4 °F - 53.6 °F 68% 30.09 in - ENE 3.5 mph - N/A   Clear
7:00 AM 71.6 °F - 57.2 °F 60% 30.09 in - NNE 8.1 mph - N/A   Clear
8:00 AM 75 °F - 57 °F 44%  in 19 mi NNW 17.3 mph - -   Scattered Clouds
8:00 AM 75.2 °F - 57.2 °F 53% 30.12 in - NNW 17.3 mph - N/A   Clear
9:00 AM 80.6 °F 80.8 °F 57.2 °F 45% 30.09 in - NNW 18.4 mph - N/A   Clear
10:00 AM 84.2 °F 83.0 °F 55.4 °F 37% 30.09 in - NW 18.4 mph 29.9 mph N/A   Clear
11:00 AM 87 °F - 54 °F 22%  in 19 mi WNW 12.7 mph - -  
11:00 AM 86.0 °F 84.2 °F 53.6 °F 33% 30.09 in - WNW 12.7 mph - N/A   Clear
12:00 PM 89.6 °F - 51.8 °F 27% 30.06 in 6.2 mi NNW 15.0 mph - N/A   Partly Cloudy
1:00 PM 91.4 °F - 48.2 °F 23% 30.04 in 6.2 mi WNW 13.8 mph 25.3 mph N/A   Partly Cloudy
2:00 PM 91 °F - 43 °F 11%  in 19 mi West 9.2 mph - -   Mostly Cloudy
2:00 PM 91.4 °F - 41.0 °F 17% 30.04 in 6.2 mi West 8.1 mph - N/A   Partly Cloudy
2:15 PM 95.0 °F - 50.0 °F 22% 30.01 in 6.2 mi West 13.8 mph - N/A   Mostly Cloudy
3:00 PM 91.4 °F - 46.4 °F 21% 30.01 in 6.2 mi WNW 10.4 mph - N/A   Scattered Clouds
4:00 PM 91.4 °F - 46.4 °F 21% 29.98 in 6.2 mi NW 13.8 mph - N/A   Scattered Clouds
5:00 PM 95 °F - 41 °F 8%  in 19 mi West 6.9 mph - -   Scattered Clouds
5:00 PM 95.0 °F - 39.2 °F 14% 29.98 in 6.2 mi West 6.9 mph - N/A   Partly Cloudy
6:00 PM 91.4 °F - 48.2 °F 23% 29.98 in 6.2 mi NW 12.7 mph - N/A   Scattered Clouds
7:00 PM 91.4 °F - 39.2 °F 16% 29.98 in - WSW 12.7 mph - N/A   Clear
8:00 PM 87 °F - 34 °F 8%  in 19 mi SW 4.6 mph - -   Partly Cloudy
8:00 PM 86.0 °F - 33.8 °F 15% 30.01 in 6.2 mi SW 4.6 mph - N/A   Scattered Clouds
9:00 PM 78.8 °F - 41.0 °F 26% 30.01 in 6.2 mi West 4.6 mph - N/A   Unknown
10:00 PM 71.6 °F - 41.0 °F 33% 30.06 in - WSW 1.2 mph - N/A   Unknown
11:00 PM 74 °F - 52 °F 36%  in - SSE 5.8 mph - -  
11:00 PM 73.4 °F - 51.8 °F 47% 30.09 in - SSE 5.8 mph - N/A   Unknown